Location: Astronomy Club of Akron Observatory
(40.9700°N, 81.5606°W)
Time: 10:23:39
(UTC-05:00)

Cosmos 1441 Rocket - Visible Passes

Search period start: 09 December 2016 00:00
Search period end: 19 December 2016 00:00
Orbit: 500 x 544 km, 81.1° (Epoch: 09 December)

Date Brightness Start Highest point End Pass type
(mag) Time Alt. Az. Time Alt. Az. Time Alt. Az.
09 Dec 6.0 07:02:21 10° NNE 07:05:06 18° ENE 07:07:49 10° ESE visible
10 Dec 6.1 06:49:25 10° NNE 06:51:55 16° ENE 06:54:22 10° ESE visible
11 Dec 6.1 06:36:33 10° NE 06:38:43 14° ENE 06:40:50 10° ESE visible
12 Dec 6.2 06:23:45 10° NE 06:25:30 13° ENE 06:27:15 10° E visible
13 Dec 6.3 06:11:07 10° NE 06:12:18 11° ENE 06:13:29 10° E visible
16 Dec 3.2 07:05:19 10° NNW 07:09:13 78° W 07:13:02 10° S visible
17 Dec 3.2 06:52:09 10° N 06:56:04 89° WSW 06:59:53 10° S visible
18 Dec 3.3 06:39:00 10° N 06:42:55 79° E 06:46:44 10° SSE visible
